User: anonymous
Location: Unspecified
(0.0000°N, 0.0000°E)
Time: 22:19:57
(UTC+00:00)
Language:

A-11 Canister half - Orbit

View from above orbital plane
View from above orbital plane
View from above satellite
View from above satellite

Ground track
Ground track

The orbit data is extracted from the following two-line orbital elements,

1 00051U 60009C   14272.39095245 -.00000086  00000-0  00000+0 0  6614
2 00051 047.2128 327.2651 0102259 075.3891 058.1392 12.18238046409534
Epoch (UTC): 29 September 2014 09:22:58
Eccentricity: 0.0102259
inclination: 47.2128°
perigee height: 1518 km
apogee height: 1682 km
right ascension of ascending node: 327.2651°
argument of perigee: 75.3891°
revolutions per day: 12.18238046
mean anomaly at epoch: 58.1392°
orbit number at epoch: 40953

The dashed part of the orbit path shows where the satellite is in the earth's shadow,  

DLR